Talkeetna, AK

11:12 AM AKDT on September 25, 2017 (GMT -0800)
Talkeetna

Weather History for PATK - October, 2013

Change the Weather History Date:

Wednesday, October 9, 2013

  Actual Average Record
Temperature  
Mean Temperature 39 °F -  
Max Temperature 48 °F 42 °F 57 °F (2006)
Min Temperature 28 °F 28 °F 16 °F (1951)
Degree Days  
Heating Degree Days 26    
Moisture  
Dew Point 32 °F    
Average Humidity 85    
Maximum Humidity 100    
Minimum Humidity 31    
Precipitation  
Precipitation 0.00 in - - ()
Sea Level Pressure  
Sea Level Pressure 29.33 in    
Wind  
Wind Speed 5 mph (SSW)    
Max Wind Speed 15 mph    
Max Gust Speed 20 mph    
Visibility 7 miles    
Events      
Averages and records for this station are not official NWS values.
T = Trace of Precipitation, MM = Missing Value Source: NWS Daily Summary

Daily Weather History Graph

Daily Weather History Graph

Search for Another Location

Airport or City:

Trip Planner

Search our weather history database for the weather conditions in past years. The results will help you decide how hot, cold, wet, or windy it might be!

Date:

Astronomy

Oct. 09, 2013 Rise Set
Actual Time 8:30 AM AKDT 7:03 PM AKDT
Civil Twilight 7:45 AM AKDT 7:48 PM AKDT
Nautical Twilight 6:53 AM AKDT 8:39 PM AKDT
Astronomical Twilight 5:59 AM AKDT 9:33 PM AKDT
Moon 2:55 PM AKDT (10/9) 9:28 PM AKDT (10/9)
Length of Visible Light 12h 02m
Length of Day
10h 32m
Waxing Crescent, 27% of the Moon is Illuminated
Oct 9
Waxing Crescent
Oct 11
First Quarter
Oct 18
Full
Oct 26
Last Quarter
Nov 3
New

Hourly Weather History & Observations

Time (AKDT) Temp. Windchill Dew Point Humidity Pressure Visibility Wind Dir Wind Speed Gust Speed Precip Events Conditions
12:27 AM 35.6 °F 32.8 °F 35.6 °F 100% 29.06 in 1.5 mi South 3.5 mph - N/A   Overcast
12:36 AM 35.6 °F 32.8 °F 35.6 °F 100% 29.07 in 2.0 mi South 3.5 mph - N/A   Overcast
12:53 AM 36.0 °F 33.3 °F 36.0 °F 100% 29.09 in 2.0 mi SSW 3.5 mph - N/A   Overcast
1:08 AM 37.4 °F 33.8 °F 35.6 °F 93% 29.08 in 1.8 mi South 4.6 mph - N/A   Overcast
1:18 AM 35.6 °F - 35.6 °F 100% 29.08 in 2.0 mi Calm Calm - N/A   Overcast
1:27 AM 35.6 °F - 35.6 °F 100% 29.09 in 7.0 mi Calm Calm - N/A   Overcast
1:34 AM 35.6 °F 32.8 °F 35.6 °F 100% 29.09 in 7.0 mi South 3.5 mph - N/A   Overcast
1:45 AM 35.6 °F 32.8 °F 35.6 °F 100% 29.10 in 5.0 mi South 3.5 mph - N/A   Overcast
1:53 AM 36.0 °F - 35.1 °F 97% 29.11 in 5.0 mi Calm Calm - N/A   Overcast
2:09 AM 35.6 °F 30.7 °F 35.6 °F 100% 29.11 in 9.0 mi South 5.8 mph - N/A   Overcast
2:24 AM 35.6 °F 31.7 °F 35.6 °F 100% 29.12 in 10.0 mi SSW 4.6 mph - N/A   Overcast
2:48 AM 35.6 °F 31.7 °F 35.6 °F 100% 29.13 in 10.0 mi SSW 4.6 mph - N/A   Overcast
2:49 AM 36.0 °F 33.3 °F 35.1 °F 97% 29.15 in 10.0 mi SSW 3.5 mph - N/A   Overcast
3:30 AM 35.6 °F 31.7 °F 35.6 °F 100% 29.15 in 5.0 mi SSW 4.6 mph - N/A   Overcast
3:53 AM 36.0 °F 31.1 °F 35.1 °F 97% 29.18 in 3.0 mi South 5.8 mph - N/A   Overcast
4:00 AM 35.6 °F 29.9 °F 35.6 °F 100% 29.17 in 1.8 mi South 6.9 mph - N/A   Overcast
4:41 AM 35.6 °F 30.7 °F 35.6 °F 100% 29.20 in 0.8 mi SSW 5.8 mph - N/A   Mist
4:53 AM 35.1 °F 29.3 °F 35.1 °F 100% 29.22 in 0.8 mi SSW 6.9 mph - N/A   Mist
5:00 AM 35.6 °F 30.7 °F 35.6 °F 100% 29.21 in 1.2 mi SW 5.8 mph - N/A   Overcast
5:17 AM 35.6 °F 30.7 °F 33.8 °F 93% 29.22 in 2.5 mi SSW 5.8 mph - N/A   Overcast
5:40 AM 35.6 °F 28.0 °F 33.8 °F 93% 29.23 in 1.5 mi South 10.4 mph - N/A   Overcast
5:53 AM 35.1 °F 27.4 °F 34.0 °F 96% 29.25 in 2.0 mi South 10.4 mph - N/A   Overcast
6:02 AM 35.6 °F 29.9 °F 33.8 °F 93% 29.24 in 3.0 mi SSW 6.9 mph - N/A   Overcast
6:14 AM 33.8 °F 26.4 °F 33.8 °F 100% 29.25 in 2.5 mi South 9.2 mph - N/A   Overcast
6:21 AM 33.8 °F 26.4 °F 33.8 °F 100% 29.25 in 6.0 mi SSW 9.2 mph - N/A   Overcast
6:53 AM 35.1 °F 27.4 °F 34.0 °F 96% 29.29 in 4.0 mi South 10.4 mph - N/A   Overcast
7:53 AM 36.0 °F 29.6 °F 34.0 °F 93% 29.32 in 10.0 mi South 8.1 mph - N/A   Mostly Cloudy
8:01 AM 35.6 °F 29.2 °F 33.8 °F 93% 29.31 in 10.0 mi South 8.1 mph - N/A   Partly Cloudy
8:53 AM 37.9 °F 29.2 °F 33.1 °F 83% 29.36 in 10.0 mi SSE 15.0 mph - N/A   Scattered Clouds
9:53 AM 37.9 °F 30.0 °F 32.0 °F 79% 29.41 in 10.0 mi SSE 12.7 mph - N/A   Mostly Cloudy
10:53 AM 39.0 °F 31.8 °F 32.0 °F 76% 29.45 in 10.0 mi South 11.5 mph - N/A   Mostly Cloudy
11:53 AM 42.1 °F 35.7 °F 32.0 °F 67% 29.49 in 10.0 mi South 11.5 mph - N/A   Scattered Clouds
12:53 PM 44.1 °F 37.7 °F 30.0 °F 58% 29.52 in 10.0 mi South 12.7 mph - N/A   Scattered Clouds
1:53 PM 46.0 °F 41.4 °F 28.0 °F 50% 29.55 in 10.0 mi SSW 9.2 mph - N/A   Scattered Clouds
2:53 PM 46.9 °F - 26.1 °F 44% 29.57 in 10.0 mi SW 10.4 mph - N/A   Scattered Clouds
3:53 PM 46.9 °F - 26.1 °F 44% 29.60 in 10.0 mi SSW 11.5 mph 19.6 mph N/A   Mostly Cloudy
4:53 PM 46.9 °F - 24.1 °F 41% 29.62 in 10.0 mi SW 8.1 mph - N/A   Mostly Cloudy
5:53 PM 46.0 °F 42.5 °F 24.1 °F 42% 29.63 in 10.0 mi SW 6.9 mph - N/A   Clear
6:53 PM 43.0 °F 39.5 °F 24.1 °F 47% 29.64 in 10.0 mi SSW 5.8 mph - N/A   Clear
7:53 PM 37.9 °F - 30.0 °F 73% 29.67 in 10.0 mi Calm Calm - N/A   Clear
8:53 PM 33.1 °F - 28.0 °F 82% 29.70 in 10.0 mi Calm Calm - N/A   Clear
9:53 PM 30.0 °F - 27.0 °F 88% 29.71 in 10.0 mi Calm Calm - N/A   Clear
10:53 PM 30.0 °F - 27.0 °F 88% 29.73 in 10.0 mi Calm Calm - N/A   Clear
11:53 PM 28.0 °F - 26.1 °F 92% 29.75 in 10.0 mi Calm Calm - N/A   Clear